Weather Roundup
Issued by NWS

Home | Current Version | Previous Version | Graphics & Text | Print | Product List | Glossary Off
Versions: 1 2 3 4 5 6 7 8 9 10 11 12 13 14 15 16 17 18 19 20 21 22 23 24 25 26 27 28 29 30 31 32 33 34 35 36 37 38 39 40 41 42 43 44 45 46 47 48 49 50

000
NZUS93 KARX 221859
HRRWXR

CURRENT HOURLY OBSERVATIONS ACROSS
MUCH OF THE UPPER MISSISSIPPI VALLEY
NATIONAL WEATHER SERVICE LA CROSSE WI
200 PM CDT TUE JUL 22 2014


...SOUTHEAST MINNESOTA...


CITY           SKY/WX    TMP DP  RH WIND       PRES   REMARKS
ROCHESTER      MOSUNNY   81  67  62 NW10      30.03R
ROCHESTER/MAYO MOCLDY    81  62  52 NW10G17   30.02R
WINONA         SUNNY     82  64  54 NW10      29.97R
AUSTIN         MOSUNNY   82  64  54 NW9G20    30.03R
ALBERT LEA     MOSUNNY   81  66  61 NW8       30.05R
DODGE CENTER   MOSUNNY   81  66  61 NW8G16    30.03S
PRESTON        MOSUNNY   80  73  78 NW8       30.02R
OWATONNA       MOSUNNY   81  64  57 NW12G18   30.05R
FARIBAULT      MOSUNNY   82  61  47 NW7       30.04R
$$

...ELSEWHERE IN MINNESOTA...


CITY           SKY/WX    TMP DP  RH WIND       PRES   REMARKS
MINNEAPOLIS    MOSUNNY   82  64  54 NW13G20   30.01R
INTNL FALLS    MOSUNNY   73  55  53 N15       30.04R
DULUTH         MOSUNNY   77  59  53 NW15G24   29.98R
RED WING       PTSUNNY   84  64  51 N10       29.99R
REDWOOD FALLS  SUNNY     82  61  48 N13G20    30.08R
MANKATO        PTSUNNY   79  63  57 N12       30.06R
WORTHINGTON    MOSUNNY   79  63  57 N10G20    30.12S
FAIRMONT       PTSUNNY   81  63  54 NW10G20   30.08R
$$

...SOUTHWEST WISCONSIN...


CITY           SKY/WX    TMP DP  RH WIND       PRES   REMARKS
LA CROSSE      SUNNY     90  69  50 NW16      29.93R HX  94
PRAIRIE DU CHI SUNNY     90  72  55 SW7       29.92S HX  96
BOSCOBEL       SUNNY     91  75  59 W8        29.92S HX 101
LONE ROCK      NOT AVBL
PLATTEVILLE    PTSUNNY   87  77  72 SW9       29.95R HX  98
FORT MC COY    MOSUNNY   88  70  54 NW17      29.94R HX  92
VIROQUA        MOCLDY    88  74  63 W10       29.96R HX  96
WIS DELLS      MOSUNNY   89  71  55 W8G18     29.92R HX  95
$$

...ELSEWHERE IN WISCONSIN...


CITY           SKY/WX    TMP DP  RH WIND       PRES   REMARKS
MILWAUKEE      MOSUNNY   89  73  59 SW17G24   29.89F HX  97
MADISON        MOSUNNY   89  75  63 VRB7      29.90F HX  99
GREEN BAY      MOSUNNY   89  75  63 W8        29.86R HX  99
EAU CLAIRE     NOT AVBL
BLACK RVR FLS  FAIR      88  64  45 N13G20    29.94R
MEDFORD        MOSUNNY   79  66  64 NW16      29.96R
WAUSAU         MOSUNNY   86  65  49 NW16      29.91R
WIS RAPIDS     MOSUNNY   88  68  51 NW17      29.93R HX  91
MARSHFIELD     MOSUNNY   84  66  54 NW17G26   29.95R
RICE LAKE      CLOUDY    77  62  59 W13G18    30.01R
$$

...NORTHEAST IOWA...


CITY           SKY/WX    TMP DP  RH WIND       PRES   REMARKS
WATERLOO       MOSUNNY   88  75  65 NW8       29.97S HX  97
DUBUQUE        CLOUDY    84  76  76 SW12      29.96R HX  93
DECORAH        MOSUNNY   88  73  62 NW10      29.96R HX  96
MASON CITY     MOSUNNY   86  68  54 NW14      30.05R
CHARLES CITY   SUNNY     88  72  58 NW12      30.01R HX  94
OELWEIN        MOSUNNY   88  75  66 NW10G17   29.99R HX  97
$$

...ELSEWHERE IN IOWA...


CITY           SKY/WX    TMP DP  RH WIND       PRES   REMARKS
DES MOINES     CLOUDY    89  78  70 W5        29.99R HX 103
IOWA CITY      MOSUNNY   88  78  72 W9        29.98R HX 101
FORT DODGE     PTSUNNY   82  70  65 N8        30.06R
MARSHALLTOWN   MOSUNNY   89  77  67 VRB7      29.97F HX 101
CEDAR RAPIDS   MOSUNNY   85  76  74 NW6       29.96R HX  94
$$

...NORTHERN ILLINOIS...


CITY           SKY/WX    TMP DP  RH WIND       PRES   REMARKS
CHICAGO-OHARE  MOSUNNY   88  69  53 SW17G23   29.95F HX  92
DUPAGE         SUNNY     88  72  58 SW16G22   29.96F HX  94
CHICAGO-MIDWAY MOSUNNY   89  72  56 SW15G22   29.96F HX  96
MOLINE         MOSUNNY   89  76  65 SW12      29.93F HX 100
ROCKFORD       PTSUNNY   87  74  64 SW13      29.95F HX  95
STERLING       SUNNY     90  75  62 W7        29.95F HX 100
PEORIA         MOSUNNY   89  73  59 SW10      30.00S HX  97
$$

NOTE: "FAIR" INDICATES FEW OR NO CLOUDS BELOW 12,000 FEET WITH NO
SIGNIFICANT WEATHER AND/OR OBSTRUCTIONS TO VISIBILITY. WIND
SPEEDS ARE IN MILES-PER-HOUR.



USA.gov is the U.S. government's official web portal to all federal, state and local government web resources and services.